Hourly Weather Abak

Today, 28 October, Wednesday

Time Temperature Precipitation Wind Pressure Humidity
00:00 +24°C° 0 mm 0 mps 752 mmHg 93%
01:00 +26°C° 0 mm 1 mps 752 mmHg 92%
02:00 +26°C° 0 mm 1 mps 752 mmHg 92%
03:00 +26°C° 0 mm 1 mps 752 mmHg 93%
04:00 +26°C° 0 mm 1 mps 751 mmHg 94%
05:00 +24°C° 0 mm 0 mps 752 mmHg 93%
06:00 +24°C° 0 mm 0 mps 752 mmHg 93%
07:00 +24°C° 0 mm 0 mps 753 mmHg 93%
08:00 +26°C° 0.6 mm 0 mps 753 mmHg 85%
09:00 +30°C° 0.6 mm 1 mps 753 mmHg 78%
10:00 +32°C° 0.6 mm 1 mps 753 mmHg 71%
11:00 +32°C° 1.1 mm 1 mps 753 mmHg 69%
12:00 +33°C° 1.1 mm 1 mps 752 mmHg 68%
13:00 +31°C° 1.1 mm 0 mps 751 mmHg 66%
14:00 +32°C° 2 mm 1 mps 751 mmHg 69%
15:00 +32°C° 2 mm 1 mps 751 mmHg 72%
16:00 +31°C° 2 mm 2 mps 750 mmHg 76%
17:00 +30°C° 2.2 mm 2 mps 751 mmHg 80%
18:00 +28°C° 2.2 mm 2 mps 751 mmHg 84%
19:00 +27°C° 2.2 mm 2 mps 752 mmHg 89%
20:00 +27°C° 0.3 mm 2 mps 753 mmHg 90%
21:00 +27°C° 0.3 mm 2 mps 753 mmHg 90%
22:00 +27°C° 0.3 mm 2 mps 754 mmHg 91%
23:00 +26°C° 0.3 mm 1 mps 753 mmHg 92%

Tomorrow, 29 October, Thursday

Time Temperature Precipitation Wind Pressure Humidity
00:00 +26°C° 0.3 mm 1 mps 753 mmHg 93%
01:00 +26°C° 0.3 mm 1 mps 753 mmHg 94%
02:00 +26°C° 0.1 mm 1 mps 753 mmHg 94%
03:00 +26°C° 0.1 mm 1 mps 752 mmHg 95%
04:00 +26°C° 0.1 mm 1 mps 752 mmHg 95%
05:00 +26°C° 0 mm 1 mps 752 mmHg 95%
06:00 +24°C° 0 mm 0 mps 753 mmHg 94%
07:00 +24°C° 0 mm 0 mps 753 mmHg 94%
08:00 +25°C° 0 mm 0 mps 754 mmHg 87%
09:00 +29°C° 0 mm 1 mps 754 mmHg 81%
10:00 +30°C° 0 mm 1 mps 754 mmHg 75%
11:00 +31°C° 1.1 mm 1 mps 754 mmHg 74%
12:00 +31°C° 1.1 mm 1 mps 753 mmHg 74%
13:00 +31°C° 1.1 mm 1 mps 752 mmHg 73%
14:00 +30°C° 2.6 mm 2 mps 752 mmHg 78%
15:00 +29°C° 2.6 mm 2 mps 752 mmHg 82%
16:00 +28°C° 2.6 mm 2 mps 751 mmHg 86%
17:00 +28°C° 0 mm 2 mps 752 mmHg 89%
18:00 +27°C° 0 mm 2 mps 752 mmHg 91%
19:00 +27°C° 0 mm 1 mps 753 mmHg 93%
20:00 +26°C° 0 mm 1 mps 753 mmHg 94%
21:00 +26°C° 0 mm 1 mps 754 mmHg 95%
22:00 +26°C° 0 mm 1 mps 754 mmHg 95%
23:00 +26°C° 1.1 mm 1 mps 754 mmHg 95%

Day after tomorrow, 30 October, Friday

Time Temperature Precipitation Wind Pressure Humidity
00:00 +26°C° 1.1 mm 1 mps 754 mmHg 95%
01:00 +24°C° 1.1 mm 0 mps 753 mmHg 95%
02:00 +26°C° 0.5 mm 1 mps 753 mmHg 95%
03:00 +26°C° 0.5 mm 1 mps 753 mmHg 95%
04:00 +26°C° 0.5 mm 1 mps 752 mmHg 95%
05:00 +26°C° 0 mm 1 mps 753 mmHg 94%
06:00 +26°C° 0 mm 1 mps 753 mmHg 94%
07:00 +24°C° 0 mm 0 mps 754 mmHg 93%
08:00 +28°C° 0 mm 1 mps 754 mmHg 86%
09:00 +29°C° 0 mm 1 mps 754 mmHg 79%
10:00 +31°C° 0 mm 1 mps 755 mmHg 72%
11:00 +32°C° 0 mm 1 mps 754 mmHg 69%
12:00 +32°C° 0 mm 1 mps 753 mmHg 66%
13:00 +33°C° 0 mm 1 mps 752 mmHg 64%
14:00 +32°C° 0.5 mm 2 mps 752 mmHg 68%
15:00 +31°C° 0.5 mm 2 mps 752 mmHg 72%
16:00 +30°C° 0.5 mm 3 mps 751 mmHg 76%
17:00 +29°C° 0.3 mm 2 mps 752 mmHg 80%
18:00 +28°C° 0.3 mm 2 mps 752 mmHg 85%
19:00 +27°C° 0.3 mm 2 mps 753 mmHg 89%
20:00 +26°C° 0.1 mm 1 mps 753 mmHg 90%
21:00 +26°C° 0.1 mm 1 mps 754 mmHg 92%
22:00 +26°C° 0.1 mm 1 mps 754 mmHg 93%
23:00 +26°C° 0 mm 1 mps 754 mmHg 93%

31 October, Saturday

Time Temperature Precipitation Wind Pressure Humidity
00:00 +26°C° 0 mm 1 mps 754 mmHg 94%
01:00 +25°C° 0 mm 1 mps 753 mmHg 94%
02:00 +25°C° 0 mm 1 mps 753 mmHg 94%
03:00 +26°C° 0 mm 1 mps 753 mmHg 94%
04:00 +26°C° 0 mm 1 mps 753 mmHg 94%
05:00 +26°C° 0 mm 1 mps 753 mmHg 93%
06:00 +24°C° 0 mm 0 mps 753 mmHg 93%
07:00 +24°C° 0 mm 0 mps 754 mmHg 93%
08:00 +27°C° 0.1 mm 1 mps 754 mmHg 88%
09:00 +28°C° 0.1 mm 1 mps 754 mmHg 82%
10:00 +30°C° 0.1 mm 1 mps 755 mmHg 77%
11:00 +30°C° 1 mm 1 mps 754 mmHg 75%
12:00 +31°C° 1 mm 2 mps 753 mmHg 73%
13:00 +31°C° 1 mm 2 mps 752 mmHg 71%
14:00 +31°C° 1.6 mm 2 mps 752 mmHg 73%
15:00 +31°C° 1.6 mm 2 mps 751 mmHg 75%
16:00 +30°C° 1.6 mm 2 mps 751 mmHg 76%
17:00 +29°C° 0.6 mm 2 mps 751 mmHg 81%
18:00 +28°C° 0.6 mm 2 mps 752 mmHg 85%
19:00 +27°C° 0.6 mm 2 mps 752 mmHg 90%
20:00 +26°C° 0.5 mm 1 mps 753 mmHg 91%
21:00 +26°C° 0.5 mm 1 mps 753 mmHg 92%
22:00 +26°C° 0.5 mm 1 mps 754 mmHg 93%
23:00 +26°C° 0.4 mm 1 mps 754 mmHg 93%

1 November, Sunday

Time Temperature Precipitation Wind Pressure Humidity
00:00 +24°C° 0.4 mm 0 mps 753 mmHg 92%
01:00 +24°C° 0.4 mm 0 mps 753 mmHg 92%
02:00 +23°C° 0.1 mm 0 mps 753 mmHg 93%
03:00 +23°C° 0.1 mm 0 mps 752 mmHg 93%
04:00 +23°C° 0.1 mm 0 mps 752 mmHg 93%
05:00 +23°C° 0.3 mm 0 mps 752 mmHg 92%
06:00 +23°C° 0.3 mm 0 mps 753 mmHg 91%
07:00 +24°C° 0.3 mm 0 mps 753 mmHg 91%
08:00 +27°C° 0 mm 1 mps 753 mmHg 86%
09:00 +28°C° 0 mm 1 mps 754 mmHg 82%
10:00 +29°C° 0 mm 1 mps 754 mmHg 77%
11:00 +29°C° 0.2 mm 1 mps 753 mmHg 76%
12:00 +30°C° 0.2 mm 1 mps 753 mmHg 75%
13:00 +30°C° 0.2 mm 1 mps 752 mmHg 73%
14:00 +31°C° 0 mm 1 mps 751 mmHg 69%
15:00 +32°C° 0 mm 1 mps 751 mmHg 66%
16:00 +32°C° 0 mm 1 mps 750 mmHg 62%
17:00 +31°C° 0.2 mm 1 mps 751 mmHg 70%
18:00 +29°C° 0.2 mm 2 mps 751 mmHg 78%
19:00 +27°C° 0.2 mm 2 mps 751 mmHg 86%
20:00 +27°C° 0.1 mm 2 mps 752 mmHg 88%
21:00 +27°C° 0.1 mm 1 mps 752 mmHg 90%
22:00 +26°C° 0.1 mm 1 mps 753 mmHg 91%
23:00 +26°C° 0.1 mm 1 mps 753 mmHg 92%

2 November, Monday

Time Temperature Precipitation Wind Pressure Humidity
00:00 +26°C° 0.1 mm 1 mps 753 mmHg 93%
01:00 +26°C° 0.1 mm 1 mps 752 mmHg 94%
02:00 +26°C° 0.1 mm 1 mps 752 mmHg 94%
03:00 +24°C° 0.1 mm 0 mps 752 mmHg 94%
04:00 +23°C° 0.1 mm 0 mps 752 mmHg 95%
05:00 +24°C° 0.1 mm 0 mps 752 mmHg 94%
06:00 +24°C° 0.1 mm 0 mps 752 mmHg 93%
07:00 +24°C° 0.1 mm 0 mps 753 mmHg 92%
08:00 +26°C° 0.5 mm 0 mps 753 mmHg 85%
09:00 +30°C° 0.5 mm 1 mps 754 mmHg 77%
10:00 +31°C° 0.5 mm 1 mps 754 mmHg 70%
11:00 +31°C° 1.1 mm 1 mps 753 mmHg 70%
12:00 +31°C° 1.1 mm 1 mps 752 mmHg 70%
13:00 +31°C° 1.1 mm 2 mps 752 mmHg 70%
14:00 +31°C° 1.6 mm 2 mps 751 mmHg 71%
15:00 +31°C° 1.6 mm 2 mps 751 mmHg 71%
16:00 +31°C° 1.6 mm 2 mps 750 mmHg 72%
17:00 +30°C° 0.7 mm 2 mps 751 mmHg 77%
18:00 +29°C° 0.7 mm 2 mps 751 mmHg 83%
19:00 +27°C° 0.7 mm 2 mps 752 mmHg 88%
20:00 +27°C° 0.8 mm 1 mps 752 mmHg 89%
21:00 +27°C° 0.8 mm 1 mps 753 mmHg 90%
22:00 +26°C° 0.8 mm 1 mps 753 mmHg 91%
23:00 +26°C° 0.3 mm 1 mps 753 mmHg 91%
Show more